Time,TemperatureF,DewpointF,PressureIn,WindDirection,WindDirectionDegrees,WindSpeedMPH,WindSpeedGustMPH,Humidity,HourlyPrecipIn,Conditions,Clouds,dailyrainin,SoftwareType,DateUTC
2013-02-02 00:02:00,27.0,23.0,30.40,ESE,106,0.0,-999.0,84,-99.99,,,0.00,,2013-02-02 06:02:00,
2013-02-02 00:12:00,27.0,23.0,30.40,ESE,106,0.0,-999.0,84,-99.99,,,0.00,,2013-02-02 06:12:00,
2013-02-02 00:21:00,27.0,23.0,30.40,ESE,106,0.0,-999.0,84,-99.99,,,0.00,,2013-02-02 06:21:00,
2013-02-02 00:31:00,26.0,23.0,30.40,ESE,106,0.0,-999.0,87,-99.99,,,0.00,,2013-02-02 06:31:00,
2013-02-02 00:41:00,26.0,23.0,30.40,ESE,106,0.0,-999.0,87,-99.99,,,0.00,,2013-02-02 06:41:00,
2013-02-02 00:51:00,26.0,22.0,30.40,ESE,106,0.0,-999.0,86,-99.99,,,0.00,,2013-02-02 06:51:00,
2013-02-02 01:02:00,27.0,23.0,30.40,ESE,106,0.0,-999.0,84,-99.99,,,0.00,,2013-02-02 07:02:00,
2013-02-02 01:11:00,27.0,23.0,30.39,ESE,106,0.0,-999.0,83,-99.99,,,0.00,,2013-02-02 07:11:00,
2013-02-02 01:21:00,27.0,23.0,30.39,ESE,106,0.0,-999.0,83,-99.99,,,0.00,,2013-02-02 07:21:00,
2013-02-02 01:31:00,27.0,22.0,30.39,ESE,106,0.0,-999.0,82,-99.99,,,0.00,,2013-02-02 07:31:00,
2013-02-02 01:41:00,27.0,22.0,30.39,ESE,106,0.0,-999.0,82,-99.99,,,0.00,,2013-02-02 07:41:00,
2013-02-02 01:51:00,26.0,22.0,30.39,ESE,106,0.0,-999.0,84,-99.99,,,0.00,,2013-02-02 07:51:00,
2013-02-02 02:01:00,26.0,22.0,30.38,ESE,106,1.0,-999.0,83,-99.99,,,0.00,,2013-02-02 08:01:00,
2013-02-02 02:11:00,26.0,22.0,30.38,ESE,106,1.0,-999.0,83,-99.99,,,0.00,,2013-02-02 08:11:00,
2013-02-02 02:21:00,27.0,22.0,30.37,East,91,0.0,-999.0,82,-99.99,,,0.00,,2013-02-02 08:21:00,
2013-02-02 02:31:00,27.0,22.0,30.38,East,100,1.0,-999.0,80,-99.99,,,0.00,,2013-02-02 08:31:00,
2013-02-02 02:41:00,27.0,22.0,30.38,East,100,1.0,-999.0,80,-99.99,,,0.00,,2013-02-02 08:41:00,
2013-02-02 02:53:00,27.0,22.0,30.38,East,100,0.0,-999.0,81,-99.99,,,0.00,,2013-02-02 08:53:00,
2013-02-02 03:01:00,27.0,22.0,30.38,ESE,102,1.0,-999.0,80,-99.99,,,0.00,,2013-02-02 09:01:00,
2013-02-02 03:11:00,27.0,22.0,30.38,ESE,102,1.0,-999.0,80,-99.99,,,0.00,,2013-02-02 09:11:00,
2013-02-02 03:22:00,27.0,21.0,30.37,ESE,120,1.0,-999.0,79,-99.99,,,0.00,,2013-02-02 09:22:00,
2013-02-02 03:31:00,28.0,21.0,30.36,ESE,112,1.0,-999.0,74,-99.99,,,0.00,,2013-02-02 09:31:00,
2013-02-02 03:41:00,28.0,21.0,30.36,ESE,112,1.0,-999.0,74,-99.99,,,0.00,,2013-02-02 09:41:00,
2013-02-02 03:52:00,29.0,21.0,30.36,SE,129,1.0,-999.0,73,-99.99,,,0.00,,2013-02-02 09:52:00,
2013-02-02 04:01:00,29.0,22.0,30.37,ESE,114,1.0,-999.0,74,-99.99,,,0.00,,2013-02-02 10:01:00,
2013-02-02 04:11:00,29.0,22.0,30.37,ESE,114,1.0,-999.0,74,-99.99,,,0.00,,2013-02-02 10:11:00,
2013-02-02 04:21:00,29.0,21.0,30.37,ESE,105,2.0,-999.0,72,-99.99,,,0.00,,2013-02-02 10:21:00,
2013-02-02 04:31:00,29.0,21.0,30.36,ESE,116,1.0,-999.0,72,-99.99,,,0.00,,2013-02-02 10:31:00,
2013-02-02 04:42:00,29.0,21.0,30.36,ESE,116,1.0,-999.0,72,-99.99,,,0.00,,2013-02-02 10:42:00,
2013-02-02 04:51:00,29.0,22.0,30.37,East,87,1.0,-999.0,74,-99.99,,,0.00,,2013-02-02 10:51:00,
2013-02-02 05:01:00,29.0,22.0,30.36,ESE,116,1.0,-999.0,74,-99.99,,,0.00,,2013-02-02 11:01:00,
2013-02-02 05:11:00,29.0,22.0,30.36,ESE,116,1.0,-999.0,74,-99.99,,,0.00,,2013-02-02 11:11:00,
2013-02-02 05:21:00,29.0,22.0,30.35,ESE,109,1.0,-999.0,75,-99.99,,,0.00,,2013-02-02 11:21:00,
2013-02-02 05:32:00,29.0,22.0,30.35,SSE,152,2.0,-999.0,75,-99.99,,,0.00,,2013-02-02 11:32:00,
2013-02-02 05:42:00,29.0,22.0,30.35,SSE,152,2.0,-999.0,75,-99.99,,,0.00,,2013-02-02 11:42:00,
2013-02-02 05:52:00,29.0,22.0,30.34,ESE,110,1.0,-999.0,75,-99.99,,,0.00,,2013-02-02 11:52:00,
2013-02-02 06:01:00,29.0,21.0,30.34,SE,133,1.0,-999.0,73,-99.99,,,0.00,,2013-02-02 12:01:00,
2013-02-02 06:11:00,29.0,21.0,30.34,SE,133,1.0,-999.0,73,-99.99,,,0.00,,2013-02-02 12:11:00,
2013-02-02 06:22:00,29.0,20.0,30.33,ESE,108,2.0,-999.0,70,-99.99,,,0.00,,2013-02-02 12:22:00,
2013-02-02 06:32:00,29.0,20.0,30.34,SE,134,2.0,-999.0,69,-99.99,,,0.00,,2013-02-02 12:32:00,
2013-02-02 06:42:00,29.0,20.0,30.34,SE,134,2.0,-999.0,69,-99.99,,,0.00,,2013-02-02 12:42:00,
2013-02-02 06:52:00,29.0,20.0,30.34,ESE,102,1.0,-999.0,69,-99.99,,,0.00,,2013-02-02 12:52:00,
2013-02-02 07:03:00,30.0,21.0,30.34,ESE,117,1.0,-999.0,69,-99.99,,,0.00,,2013-02-02 13:03:00,
2013-02-02 07:11:00,30.0,21.0,30.34,ESE,117,1.0,-999.0,69,-99.99,,,0.00,,2013-02-02 13:11:00,
2013-02-02 07:21:00,30.0,21.0,30.33,ESE,121,4.0,-999.0,69,-99.99,,,0.00,,2013-02-02 13:21:00,
2013-02-02 07:32:00,31.0,22.0,30.34,SE,128,3.0,-999.0,68,-99.99,,,0.00,,2013-02-02 13:32:00,
2013-02-02 07:42:00,31.0,22.0,30.34,SE,128,3.0,-999.0,68,-99.99,,,0.00,,2013-02-02 13:42:00,
2013-02-02 07:52:00,31.0,21.0,30.34,ESE,114,2.0,-999.0,67,-99.99,,,0.00,,2013-02-02 13:52:00,
2013-02-02 08:02:00,32.0,22.0,30.35,SE,126,2.0,-999.0,66,-99.99,,,0.00,,2013-02-02 14:02:00,
2013-02-02 08:11:00,32.0,22.0,30.35,SE,126,2.0,-999.0,66,-99.99,,,0.00,,2013-02-02 14:11:00,
2013-02-02 08:22:00,32.0,22.0,30.35,ESE,112,1.0,-999.0,66,-99.99,,,0.00,,2013-02-02 14:22:00,
2013-02-02 08:32:00,33.0,22.0,30.36,ESE,112,0.0,-999.0,63,-99.99,,,0.00,,2013-02-02 14:32:00,
2013-02-02 08:42:00,33.0,22.0,30.36,ESE,112,0.0,-999.0,63,-99.99,,,0.00,,2013-02-02 14:42:00,
2013-02-02 08:52:00,33.0,24.0,30.41,North,4,5.0,-999.0,68,-99.99,,,0.00,,2013-02-02 14:52:00,
2013-02-02 09:03:00,33.0,24.0,30.37,ENE,66,4.0,-999.0,68,-99.99,,,0.00,,2013-02-02 15:03:00,
2013-02-02 09:12:00,33.0,24.0,30.37,ENE,66,4.0,-999.0,68,-99.99,,,0.00,,2013-02-02 15:12:00,
2013-02-02 09:22:00,33.0,24.0,30.38,NW,310,2.0,-999.0,70,-99.99,,,0.00,,2013-02-02 15:22:00,
2013-02-02 09:32:00,33.0,25.0,30.35,ESE,115,2.0,-999.0,72,-99.99,,,0.00,,2013-02-02 15:32:00,
2013-02-02 09:42:00,33.0,25.0,30.35,ESE,115,2.0,-999.0,72,-99.99,,,0.00,,2013-02-02 15:42:00,
2013-02-02 09:52:00,34.0,26.0,30.37,SE,124,0.0,-999.0,72,-99.99,,,0.00,,2013-02-02 15:52:00,
2013-02-02 10:03:00,34.0,28.0,30.33,ESE,107,2.0,-999.0,79,-99.99,,,0.00,,2013-02-02 16:03:00,
2013-02-02 10:11:00,34.0,28.0,30.33,ESE,107,2.0,-999.0,79,-99.99,,,0.00,,2013-02-02 16:11:00,
2013-02-02 10:22:00,34.0,28.0,30.32,SE,129,3.0,-999.0,79,-99.99,,,0.00,,2013-02-02 16:22:00,
2013-02-02 10:32:00,34.0,28.0,30.32,East,100,2.0,-999.0,77,-99.99,,,0.00,,2013-02-02 16:32:00,
2013-02-02 10:42:00,34.0,28.0,30.32,East,100,2.0,-999.0,77,-99.99,,,0.00,,2013-02-02 16:42:00,
2013-02-02 10:52:00,34.0,28.0,30.31,SE,133,1.0,-999.0,78,-99.99,,,0.00,,2013-02-02 16:52:00,
2013-02-02 11:02:00,35.0,29.0,30.30,ESE,121,2.0,-999.0,79,-99.99,,,0.00,,2013-02-02 17:02:00,
2013-02-02 11:11:00,35.0,29.0,30.30,ESE,121,2.0,-999.0,79,-99.99,,,0.00,,2013-02-02 17:11:00,
2013-02-02 11:22:00,37.0,29.0,30.29,ESE,114,2.0,-999.0,74,-99.99,,,0.00,,2013-02-02 17:22:00,
2013-02-02 11:32:00,38.0,30.0,30.29,SE,134,1.0,-999.0,72,-99.99,,,0.00,,2013-02-02 17:32:00,
2013-02-02 11:42:00,38.0,30.0,30.29,SE,134,1.0,-999.0,72,-99.99,,,0.00,,2013-02-02 17:42:00,
2013-02-02 11:52:00,39.0,27.0,30.28,SW,228,2.0,-999.0,62,-99.99,,,0.00,,2013-02-02 17:52:00,
2013-02-02 12:02:00,42.0,29.0,30.27,South,169,2.0,-999.0,59,-99.99,,,0.01,,2013-02-02 18:02:00,
2013-02-02 12:12:00,42.0,29.0,30.27,South,169,2.0,-999.0,59,-99.99,,,0.01,,2013-02-02 18:12:00,
2013-02-02 12:22:00,42.0,29.0,30.26,SSW,192,3.0,-999.0,60,-99.99,,,0.01,,2013-02-02 18:22:00,
2013-02-02 12:32:00,42.0,30.0,30.24,SE,133,1.0,-999.0,62,-99.99,,,0.01,,2013-02-02 18:32:00,
2013-02-02 12:42:00,42.0,30.0,30.24,SE,133,1.0,-999.0,62,-99.99,,,0.01,,2013-02-02 18:42:00,
2013-02-02 12:52:00,43.0,30.0,30.24,South,175,1.0,-999.0,61,-99.99,,,0.01,,2013-02-02 18:52:00,
2013-02-02 13:02:00,43.0,31.0,30.22,SSE,160,2.0,-999.0,62,-99.99,,,0.01,,2013-02-02 19:02:00,
2013-02-02 13:12:00,43.0,31.0,30.22,SSE,160,2.0,-999.0,62,-99.99,,,0.01,,2013-02-02 19:12:00,
2013-02-02 13:21:00,43.0,32.0,30.20,SSE,168,1.0,-999.0,65,-99.99,,,0.01,,2013-02-02 19:21:00,
2013-02-02 13:32:00,44.0,33.0,30.20,SSE,158,1.0,-999.0,66,-99.99,,,0.01,,2013-02-02 19:32:00,
2013-02-02 13:42:00,44.0,33.0,30.20,SSE,158,1.0,-999.0,66,-99.99,,,0.01,,2013-02-02 19:42:00,
2013-02-02 13:52:00,45.0,32.0,30.20,SSE,167,2.0,-999.0,61,-99.99,,,0.01,,2013-02-02 19:52:00,
2013-02-02 14:01:00,44.0,33.0,30.20,South,174,1.0,-999.0,64,-99.99,,,0.01,,2013-02-02 20:01:00,
2013-02-02 14:11:00,44.0,33.0,30.20,South,174,1.0,-999.0,64,-99.99,,,0.01,,2013-02-02 20:11:00,
2013-02-02 14:21:00,43.0,35.0,30.19,South,181,2.0,-999.0,73,-99.99,,,0.01,,2013-02-02 20:21:00,
2013-02-02 14:32:00,42.0,37.0,30.19,South,181,0.0,-999.0,83,-99.99,,,0.02,,2013-02-02 20:32:00,
2013-02-02 14:41:00,42.0,37.0,30.19,South,181,0.0,-999.0,83,-99.99,,,0.02,,2013-02-02 20:41:00,
2013-02-02 14:52:00,41.0,38.0,30.19,SSW,192,1.0,-999.0,88,-99.99,,,0.03,,2013-02-02 20:52:00,
2013-02-02 15:02:00,41.0,38.0,30.19,WSW,241,1.0,-999.0,90,-99.99,,,0.04,,2013-02-02 21:02:00,
2013-02-02 15:11:00,41.0,38.0,30.19,WSW,241,1.0,-999.0,90,-99.99,,,0.04,,2013-02-02 21:11:00,
2013-02-02 15:21:00,40.0,38.0,30.19,SW,218,1.0,-999.0,92,-99.99,,,0.05,,2013-02-02 21:21:00,
2013-02-02 15:32:00,40.0,38.0,30.21,WSW,238,2.0,-999.0,93,-99.99,,,0.06,,2013-02-02 21:32:00,
2013-02-02 15:42:00,40.0,38.0,30.21,WSW,238,2.0,-999.0,93,-99.99,,,0.06,,2013-02-02 21:42:00,
2013-02-02 15:52:00,40.0,38.0,30.19,SSW,194,3.0,-999.0,93,-99.99,,,0.07,,2013-02-02 21:52:00,
2013-02-02 16:02:00,40.0,38.0,30.19,South,190,3.0,-999.0,93,-99.99,,,0.07,,2013-02-02 22:02:00,
2013-02-02 16:11:00,40.0,38.0,30.19,South,190,3.0,-999.0,93,-99.99,,,0.07,,2013-02-02 22:11:00,
2013-02-02 16:21:00,41.0,39.0,30.20,SSW,201,2.0,-999.0,94,-99.99,,,0.07,,2013-02-02 22:21:00,
2013-02-02 16:32:00,41.0,39.0,30.18,SW,214,2.0,-999.0,93,-99.99,,,0.07,,2013-02-02 22:32:00,
2013-02-02 16:42:00,41.0,39.0,30.18,SW,214,2.0,-999.0,93,-99.99,,,0.07,,2013-02-02 22:42:00,
2013-02-02 16:52:00,41.0,39.0,30.18,SSW,206,3.0,-999.0,93,-99.99,,,0.07,,2013-02-02 22:52:00,
2013-02-02 17:01:00,41.0,39.0,30.17,SE,139,2.0,-999.0,93,-99.99,,,0.07,,2013-02-02 23:01:00,
2013-02-02 17:11:00,41.0,39.0,30.17,SE,139,2.0,-999.0,93,-99.99,,,0.07,,2013-02-02 23:11:00,
2013-02-02 17:21:00,41.0,39.0,30.18,South,178,2.0,-999.0,94,-99.99,,,0.07,,2013-02-02 23:21:00,
2013-02-02 17:32:00,41.0,39.0,30.18,South,185,1.0,-999.0,94,-99.99,,,0.07,,2013-02-02 23:32:00,
2013-02-02 17:42:00,41.0,39.0,30.18,South,185,1.0,-999.0,94,-99.99,,,0.07,,2013-02-02 23:42:00,
2013-02-02 17:52:00,40.0,38.0,30.18,South,185,0.0,-999.0,94,-99.99,,,0.07,,2013-02-02 23:52:00,
2013-02-02 18:02:00,40.0,38.0,30.18,South,185,0.0,-999.0,94,-99.99,,,0.07,,2013-02-03 00:02:00,
2013-02-02 18:11:00,40.0,38.0,30.18,South,185,0.0,-999.0,94,-99.99,,,0.07,,2013-02-03 00:11:00,
2013-02-02 18:21:00,40.0,39.0,30.19,South,185,0.0,-999.0,95,-99.99,,,0.00,,2013-02-03 00:21:00,
2013-02-02 18:32:00,39.0,38.0,30.19,South,185,0.0,-999.0,95,-99.99,,,0.00,,2013-02-03 00:32:00,
2013-02-02 18:41:00,39.0,38.0,30.19,South,185,0.0,-999.0,95,-99.99,,,0.00,,2013-02-03 00:41:00,
2013-02-02 18:52:00,39.0,38.0,30.19,South,185,0.0,-999.0,95,-99.99,,,0.00,,2013-02-03 00:52:00,
2013-02-02 19:02:00,38.0,36.0,30.19,South,185,0.0,-999.0,94,-99.99,,,0.00,,2013-02-03 01:02:00,
2013-02-02 19:11:00,38.0,37.0,30.20,South,185,0.0,-999.0,96,-99.99,,,0.00,,2013-02-03 01:11:00,
2013-02-02 19:21:00,38.0,37.0,30.20,South,185,0.0,-999.0,96,-99.99,,,0.00,,2013-02-03 01:21:00,
2013-02-02 19:32:00,37.0,36.0,30.21,South,185,0.0,-999.0,96,-99.99,,,0.00,,2013-02-03 01:32:00,
2013-02-02 19:42:00,37.0,36.0,30.21,South,185,0.0,-999.0,96,-99.99,,,0.00,,2013-02-03 01:42:00,
2013-02-02 19:52:00,37.0,36.0,30.21,South,185,0.0,-999.0,95,-99.99,,,0.00,,2013-02-03 01:52:00,
2013-02-02 20:01:00,36.0,35.0,30.22,South,185,0.0,-999.0,96,-99.99,,,0.00,,2013-02-03 02:01:00,
2013-02-02 20:11:00,36.0,35.0,30.22,South,185,0.0,-999.0,96,-99.99,,,0.00,,2013-02-03 02:11:00,
2013-02-02 20:21:00,36.0,35.0,30.23,South,185,0.0,-999.0,96,-99.99,,,0.00,,2013-02-03 02:21:00,
2013-02-02 20:32:00,35.0,34.0,30.23,South,185,0.0,-999.0,96,-99.99,,,0.00,,2013-02-03 02:32:00,
2013-02-02 20:42:00,35.0,34.0,30.23,South,185,0.0,-999.0,96,-99.99,,,0.00,,2013-02-03 02:42:00,
2013-02-02 20:52:00,35.0,34.0,30.24,South,185,0.0,-999.0,97,-99.99,,,0.00,,2013-02-03 02:52:00,
2013-02-02 21:02:00,35.0,34.0,30.24,South,185,0.0,-999.0,97,-99.99,,,0.00,,2013-02-03 03:02:00,
2013-02-02 21:11:00,36.0,35.0,30.24,South,185,0.0,-999.0,97,-99.99,,,0.00,,2013-02-03 03:11:00,
2013-02-02 21:21:00,36.0,35.0,30.24,South,185,0.0,-999.0,97,-99.99,,,0.00,,2013-02-03 03:21:00,
2013-02-02 21:31:00,36.0,35.0,30.24,South,185,0.0,-999.0,97,-99.99,,,0.00,,2013-02-03 03:31:00,
2013-02-02 21:42:00,36.0,35.0,30.24,South,185,0.0,-999.0,97,-99.99,,,0.00,,2013-02-03 03:42:00,
2013-02-02 21:52:00,36.0,35.0,30.24,South,185,0.0,-999.0,97,-99.99,,,0.00,,2013-02-03 03:52:00,
2013-02-02 22:01:00,36.0,35.0,30.22,South,185,0.0,-999.0,97,-99.99,,,0.00,,2013-02-03 04:01:00,
2013-02-02 22:11:00,36.0,35.0,30.22,South,185,0.0,-999.0,97,-99.99,,,0.00,,2013-02-03 04:11:00,
2013-02-02 22:21:00,36.0,35.0,30.23,South,185,0.0,-999.0,97,-99.99,,,0.00,,2013-02-03 04:21:00,
2013-02-02 22:31:00,35.0,34.0,30.23,South,185,0.0,-999.0,97,-99.99,,,0.00,,2013-02-03 04:31:00,
2013-02-02 22:42:00,35.0,34.0,30.23,South,185,0.0,-999.0,97,-99.99,,,0.00,,2013-02-03 04:42:00,
2013-02-02 22:52:00,35.0,34.0,30.23,South,185,0.0,-999.0,97,-99.99,,,0.00,,2013-02-03 04:52:00,
2013-02-02 23:03:00,34.0,33.0,30.22,South,185,0.0,-999.0,97,-99.99,,,0.00,,2013-02-03 05:03:00,
2013-02-02 23:11:00,34.0,33.0,30.22,South,185,0.0,-999.0,97,-99.99,,,0.00,,2013-02-03 05:11:00,
2013-02-02 23:22:00,34.0,33.0,30.23,South,185,0.0,-999.0,97,-99.99,,,0.00,,2013-02-03 05:22:00,
2013-02-02 23:32:00,34.0,33.0,30.22,South,185,0.0,-999.0,97,-99.99,,,0.00,,2013-02-03 05:32:00,
2013-02-02 23:42:00,34.0,33.0,30.22,South,185,0.0,-999.0,97,-99.99,,,0.00,,2013-02-03 05:42:00,
2013-02-02 23:52:00,33.0,32.0,30.22,South,185,0.0,-999.0,97,-99.99,,,0.00,,2013-02-03 05:52:00,